Time,TemperatureF,DewpointF,PressureIn,WindDirection,WindDirectionDegrees,WindSpeedMPH,WindSpeedGustMPH,Humidity,HourlyPrecipIn,Conditions,Clouds,dailyrainin,SoftwareType,DateUTC
2013-01-12 00:11:00,38.7,37.0,30.24,East,94,6.0,8.0,92,0.02,,,0.00,weatherlink.com 1.10,2013-01-12 05:11:00,
2013-01-12 00:26:00,39.0,36.0,30.23,ENE,75,6.0,10.0,90,0.00,,,0.00,weatherlink.com 1.10,2013-01-12 05:26:00,
2013-01-12 00:41:00,39.0,36.0,30.25,SSE,159,0.0,6.0,90,0.01,,,0.01,weatherlink.com 1.10,2013-01-12 05:41:00,
2013-01-12 00:56:00,38.9,37.0,30.26,SSE,159,0.0,2.0,91,0.02,,,0.02,weatherlink.com 1.10,2013-01-12 05:56:00,
2013-01-12 01:11:00,38.6,36.0,30.26,SSE,156,0.0,2.0,91,0.02,,,0.02,weatherlink.com 1.10,2013-01-12 06:11:00,
2013-01-12 01:26:00,38.3,36.0,30.25,SSE,148,2.0,3.0,92,0.02,,,0.02,weatherlink.com 1.10,2013-01-12 06:26:00,
2013-01-12 01:41:00,38.3,37.0,30.25,ENE,74,1.0,4.0,93,0.02,,,0.03,weatherlink.com 1.10,2013-01-12 06:41:00,
2013-01-12 01:56:00,38.7,37.0,30.25,ESE,103,1.0,4.0,95,0.01,,,0.03,weatherlink.com 1.10,2013-01-12 06:56:00,
2013-01-12 02:11:00,39.0,38.0,30.24,East,91,2.0,5.0,95,0.01,,,0.03,weatherlink.com 1.10,2013-01-12 07:11:00,
2013-01-12 02:26:00,39.3,38.0,30.23,SE,130,3.0,5.0,96,0.02,,,0.04,weatherlink.com 1.10,2013-01-12 07:26:00,
2013-01-12 02:41:00,39.4,38.0,30.21,SE,136,0.0,6.0,96,0.01,,,0.04,weatherlink.com 1.10,2013-01-12 07:41:00,
2013-01-12 02:56:00,39.6,39.0,30.20,WNW,295,2.0,6.0,96,0.01,,,0.04,weatherlink.com 1.10,2013-01-12 07:56:00,
2013-01-12 03:11:00,39.8,39.0,30.21,ESE,107,1.0,5.0,96,0.01,,,0.04,weatherlink.com 1.10,2013-01-12 08:11:00,
2013-01-12 03:26:00,39.8,39.0,30.20,ESE,103,1.0,4.0,96,0.00,,,0.04,weatherlink.com 1.10,2013-01-12 08:26:00,
2013-01-12 03:41:00,40.2,39.0,30.20,SE,144,5.0,6.0,97,0.00,,,0.04,weatherlink.com 1.10,2013-01-12 08:41:00,
2013-01-12 03:56:00,40.2,39.0,30.19,East,97,0.0,4.0,96,0.00,,,0.04,weatherlink.com 1.10,2013-01-12 08:56:00,
2013-01-12 04:11:00,40.4,39.0,30.18,SE,142,1.0,5.0,96,0.00,,,0.04,weatherlink.com 1.10,2013-01-12 09:11:00,
2013-01-12 04:26:00,40.5,39.0,30.17,East,92,2.0,5.0,95,0.00,,,0.04,weatherlink.com 1.10,2013-01-12 09:26:00,
2013-01-12 04:41:00,40.6,39.0,30.17,East,96,1.0,5.0,95,0.00,,,0.04,weatherlink.com 1.10,2013-01-12 09:41:00,
2013-01-12 04:56:00,40.7,39.0,30.18,East,101,1.0,5.0,95,0.00,,,0.04,weatherlink.com 1.10,2013-01-12 09:56:00,
2013-01-12 05:11:00,40.9,39.0,30.18,NE,53,2.0,4.0,94,0.00,,,0.04,weatherlink.com 1.10,2013-01-12 10:11:00,
2013-01-12 05:26:00,41.1,40.0,30.17,SE,130,3.0,4.0,94,0.00,,,0.04,weatherlink.com 1.10,2013-01-12 10:26:00,
2013-01-12 05:41:00,41.3,40.0,30.17,East,90,2.0,6.0,94,0.00,,,0.04,weatherlink.com 1.10,2013-01-12 10:41:00,
2013-01-12 05:56:00,41.5,40.0,30.18,East,82,1.0,3.0,93,0.00,,,0.04,weatherlink.com 1.10,2013-01-12 10:56:00,
2013-01-12 06:13:00,41.5,40.0,30.18,East,101,2.0,7.0,93,0.00,,,0.04,weatherlink.com 1.10,2013-01-12 11:13:00,
2013-01-12 06:26:00,41.3,40.0,30.18,ENE,76,2.0,5.0,93,0.00,,,0.04,weatherlink.com 1.10,2013-01-12 11:26:00,
2013-01-12 06:43:00,41.4,40.0,30.18,SSE,152,2.0,4.0,93,0.00,,,0.04,weatherlink.com 1.10,2013-01-12 11:43:00,
2013-01-12 06:56:00,41.4,40.0,30.17,East,81,2.0,6.0,94,0.00,,,0.04,weatherlink.com 1.10,2013-01-12 11:56:00,
2013-01-12 07:11:00,41.4,40.0,30.17,East,96,0.0,8.0,95,0.00,,,0.04,weatherlink.com 1.10,2013-01-12 12:11:00,
2013-01-12 07:26:00,41.7,40.0,30.18,SSE,152,3.0,6.0,95,0.00,,,0.04,weatherlink.com 1.10,2013-01-12 12:26:00,
2013-01-12 07:42:00,42.2,41.0,30.17,ENE,72,0.0,6.0,96,0.00,,,0.04,weatherlink.com 1.10,2013-01-12 12:42:00,
2013-01-12 07:57:00,42.5,42.0,30.19,ESE,104,2.0,7.0,96,0.00,,,0.04,weatherlink.com 1.10,2013-01-12 12:57:00,
2013-01-12 08:12:00,42.6,42.0,30.18,ENE,77,4.0,6.0,96,0.00,,,0.04,weatherlink.com 1.10,2013-01-12 13:12:00,
2013-01-12 08:27:00,42.9,42.0,30.18,East,82,1.0,4.0,95,0.00,,,0.04,weatherlink.com 1.10,2013-01-12 13:27:00,
2013-01-12 08:42:00,43.1,42.0,30.19,ESE,110,3.0,5.0,95,0.00,,,0.04,weatherlink.com 1.10,2013-01-12 13:42:00,
2013-01-12 08:57:00,43.3,42.0,30.19,ENE,76,2.0,5.0,95,0.00,,,0.04,weatherlink.com 1.10,2013-01-12 13:57:00,
2013-01-12 09:12:00,43.5,42.0,30.19,ESE,110,3.0,6.0,95,0.00,,,0.04,weatherlink.com 1.10,2013-01-12 14:12:00,
2013-01-12 09:27:00,43.6,42.0,30.20,SE,125,3.0,4.0,94,0.00,,,0.04,weatherlink.com 1.10,2013-01-12 14:27:00,
2013-01-12 09:42:00,43.8,42.0,30.20,SE,134,2.0,6.0,94,0.00,,,0.04,weatherlink.com 1.10,2013-01-12 14:42:00,
2013-01-12 09:57:00,43.9,42.0,30.20,ESE,105,0.0,6.0,94,0.00,,,0.04,weatherlink.com 1.10,2013-01-12 14:57:00,
2013-01-12 10:12:00,44.2,42.0,30.20,East,89,3.0,5.0,93,0.00,,,0.04,weatherlink.com 1.10,2013-01-12 15:12:00,
2013-01-12 10:27:00,44.2,42.0,30.19,SSE,159,1.0,5.0,92,0.00,,,0.04,weatherlink.com 1.10,2013-01-12 15:27:00,
2013-01-12 10:42:00,44.4,42.0,30.19,ESE,122,6.0,6.0,92,0.00,,,0.04,weatherlink.com 1.10,2013-01-12 15:42:00,
2013-01-12 10:57:00,44.8,42.0,30.19,East,98,2.0,4.0,91,0.00,,,0.04,weatherlink.com 1.10,2013-01-12 15:57:00,
2013-01-12 11:12:00,45.0,42.0,30.18,ESE,113,1.0,6.0,90,0.00,,,0.04,weatherlink.com 1.10,2013-01-12 16:12:00,
2013-01-12 11:27:00,45.6,43.0,30.16,ESE,120,3.0,7.0,89,0.00,,,0.04,weatherlink.com 1.10,2013-01-12 16:27:00,
2013-01-12 11:42:00,45.9,43.0,30.15,ESE,113,0.0,7.0,88,0.00,,,0.04,weatherlink.com 1.10,2013-01-12 16:42:00,
2013-01-12 11:57:00,46.4,43.0,30.15,SE,141,2.0,6.0,87,0.00,,,0.04,weatherlink.com 1.10,2013-01-12 16:57:00,
2013-01-12 12:12:00,46.9,43.0,30.15,ESE,121,3.0,6.0,86,0.00,,,0.04,weatherlink.com 1.10,2013-01-12 17:12:00,
2013-01-12 12:27:00,46.5,43.0,30.17,WNW,285,0.0,4.0,86,0.00,,,0.04,weatherlink.com 1.10,2013-01-12 17:27:00,
2013-01-12 12:42:00,45.8,42.0,30.16,ESE,103,0.0,5.0,85,0.00,,,0.04,weatherlink.com 1.10,2013-01-12 17:42:00,
2013-01-12 12:57:00,45.6,41.0,30.15,SSE,156,4.0,8.0,84,0.00,,,0.04,weatherlink.com 1.10,2013-01-12 17:57:00,
2013-01-12 13:12:00,45.7,41.0,30.14,East,83,3.0,8.0,83,0.00,,,0.04,weatherlink.com 1.10,2013-01-12 18:12:00,
2013-01-12 13:27:00,45.7,41.0,30.15,NW,305,0.0,6.0,83,0.00,,,0.04,weatherlink.com 1.10,2013-01-12 18:27:00,
2013-01-12 13:42:00,45.6,41.0,30.15,ESE,107,7.0,10.0,83,0.00,,,0.04,weatherlink.com 1.10,2013-01-12 18:42:00,
2013-01-12 13:57:00,45.6,41.0,30.15,ENE,77,2.0,6.0,85,0.00,,,0.04,weatherlink.com 1.10,2013-01-12 18:57:00,
2013-01-12 14:12:00,45.3,41.0,30.16,NE,54,2.0,9.0,85,0.00,,,0.04,weatherlink.com 1.10,2013-01-12 19:12:00,
2013-01-12 14:27:00,45.4,42.0,30.16,ESE,108,8.0,10.0,86,0.00,,,0.04,weatherlink.com 1.10,2013-01-12 19:27:00,
2013-01-12 14:42:00,44.9,42.0,30.16,ESE,122,4.0,8.0,88,0.00,,,0.04,weatherlink.com 1.10,2013-01-12 19:42:00,
2013-01-12 14:57:00,44.9,42.0,30.19,ESE,105,2.0,6.0,88,0.00,,,0.04,weatherlink.com 1.10,2013-01-12 19:57:00,
2013-01-12 15:12:00,45.1,42.0,30.18,East,82,0.0,6.0,87,0.00,,,0.04,weatherlink.com 1.10,2013-01-12 20:12:00,
2013-01-12 15:27:00,45.0,41.0,30.17,ESE,104,2.0,5.0,87,0.00,,,0.04,weatherlink.com 1.10,2013-01-12 20:27:00,
2013-01-12 15:42:00,44.6,42.0,30.17,East,96,0.0,5.0,89,0.00,,,0.04,weatherlink.com 1.10,2013-01-12 20:42:00,
2013-01-12 15:57:00,44.4,42.0,30.17,East,97,0.0,3.0,90,0.00,,,0.04,weatherlink.com 1.10,2013-01-12 20:57:00,
2013-01-12 16:12:00,44.3,41.0,30.16,ESE,122,0.0,2.0,89,0.00,,,0.04,weatherlink.com 1.10,2013-01-12 21:12:00,
2013-01-12 16:27:00,44.2,41.0,30.16,East,90,0.0,2.0,88,0.00,,,0.04,weatherlink.com 1.10,2013-01-12 21:27:00,
2013-01-12 16:42:00,44.0,41.0,30.16,ESE,103,0.0,1.0,89,0.00,,,0.04,weatherlink.com 1.10,2013-01-12 21:42:00,
2013-01-12 16:58:00,43.8,41.0,30.16,East,99,0.0,2.0,90,0.00,,,0.04,weatherlink.com 1.10,2013-01-12 21:58:00,
2013-01-12 17:12:00,43.5,41.0,30.16,East,94,0.0,0.0,90,0.00,,,0.04,weatherlink.com 1.10,2013-01-12 22:12:00,
2013-01-12 17:27:00,43.3,41.0,30.16,East,94,0.0,0.0,91,0.00,,,0.04,weatherlink.com 1.10,2013-01-12 22:27:00,
2013-01-12 17:42:00,42.9,41.0,30.15,East,94,0.0,0.0,91,0.00,,,0.04,weatherlink.com 1.10,2013-01-12 22:42:00,
2013-01-12 17:57:00,42.9,41.0,30.15,ESE,115,0.0,1.0,93,0.00,,,0.04,weatherlink.com 1.10,2013-01-12 22:57:00,
2013-01-12 18:12:00,42.3,41.0,30.15,ESE,115,0.0,1.0,93,0.00,,,0.04,weatherlink.com 1.10,2013-01-12 23:12:00,
2013-01-12 18:27:00,41.5,40.0,30.16,NNE,23,0.0,0.0,93,0.00,,,0.04,weatherlink.com 1.10,2013-01-12 23:27:00,
2013-01-12 18:42:00,41.1,40.0,30.17,NNE,23,0.0,1.0,94,0.00,,,0.04,weatherlink.com 1.10,2013-01-12 23:42:00,
2013-01-12 18:57:00,40.8,40.0,30.17,NNE,25,0.0,1.0,95,0.00,,,0.04,weatherlink.com 1.10,2013-01-12 23:57:00,
2013-01-12 19:12:00,40.5,39.0,30.17,NNE,24,0.0,0.0,95,0.00,,,0.04,weatherlink.com 1.10,2013-01-13 00:12:00,
2013-01-12 19:27:00,40.1,39.0,30.17,NNE,25,0.0,1.0,95,0.00,,,0.04,weatherlink.com 1.10,2013-01-13 00:27:00,
2013-01-12 19:42:00,40.0,39.0,30.17,NNE,24,0.0,0.0,96,0.00,,,0.04,weatherlink.com 1.10,2013-01-13 00:42:00,
2013-01-12 19:57:00,39.6,38.0,30.16,ESE,102,0.0,1.0,95,0.00,,,0.04,weatherlink.com 1.10,2013-01-13 00:57:00,
2013-01-12 20:12:00,38.6,37.0,30.17,North,355,0.0,1.0,95,0.00,,,0.04,weatherlink.com 1.10,2013-01-13 01:12:00,
2013-01-12 20:27:00,38.1,37.0,30.17,NNW,347,0.0,1.0,96,0.00,,,0.04,weatherlink.com 1.10,2013-01-13 01:27:00,
2013-01-12 20:42:00,38.1,37.0,30.15,NE,42,0.0,1.0,96,0.00,,,0.04,weatherlink.com 1.10,2013-01-13 01:42:00,
2013-01-12 20:57:00,37.8,37.0,30.15,NE,42,0.0,0.0,96,0.00,,,0.04,weatherlink.com 1.10,2013-01-13 01:57:00,
2013-01-12 21:12:00,37.4,36.0,30.15,ENE,65,0.0,1.0,96,0.00,,,0.04,weatherlink.com 1.10,2013-01-13 02:12:00,
2013-01-12 21:27:00,37.2,37.0,30.16,ENE,64,0.0,0.0,97,0.00,,,0.04,weatherlink.com 1.10,2013-01-13 02:27:00,
2013-01-12 21:42:00,37.5,37.0,30.15,ENE,64,0.0,0.0,97,0.00,,,0.04,weatherlink.com 1.10,2013-01-13 02:42:00,
2013-01-12 21:57:00,36.8,36.0,30.16,ENE,64,0.0,0.0,96,0.00,,,0.04,weatherlink.com 1.10,2013-01-13 02:57:00,
2013-01-12 22:12:00,37.2,36.0,30.16,ESE,106,0.0,0.0,96,0.00,,,0.04,weatherlink.com 1.10,2013-01-13 03:12:00,
2013-01-12 22:27:00,37.2,37.0,30.17,ESE,105,0.0,1.0,97,0.00,,,0.04,weatherlink.com 1.10,2013-01-13 03:27:00,
2013-01-12 22:42:00,37.6,37.0,30.16,East,87,0.0,0.0,97,0.00,,,0.04,weatherlink.com 1.10,2013-01-13 03:42:00,
2013-01-12 22:57:00,39.1,39.0,30.16,NE,56,0.0,2.0,98,0.00,,,0.04,weatherlink.com 1.10,2013-01-13 03:57:00,
2013-01-12 23:12:00,39.7,39.0,30.15,NE,56,0.0,1.0,97,0.00,,,0.04,weatherlink.com 1.10,2013-01-13 04:12:00,
2013-01-12 23:27:00,39.5,39.0,30.16,WSW,252,1.0,4.0,97,0.00,,,0.04,weatherlink.com 1.10,2013-01-13 04:27:00,
2013-01-12 23:42:00,40.5,40.0,30.15,WSW,239,0.0,1.0,98,0.00,,,0.04,weatherlink.com 1.10,2013-01-13 04:42:00,
2013-01-12 23:57:00,40.2,39.0,30.14,WSW,239,0.0,0.0,97,0.00,,,0.04,weatherlink.com 1.10,2013-01-13 04:57:00,